| time (UTC) | temp C | wind direction | speed KPH | gust KPH | rain 1hr cm | rain 24hr cm | rain mn cm | humidity % | barometer mb |
| 20260509053011 | 10 | 211 | 3.2 | 4.8 | 0.00 | 0.00 | 0.00 | 68 | 1014.2 |
| 20260509051507 | 11 | 231 | 0.0 | 3.2 | 0.00 | 0.00 | 0.00 | 67 | 1013.9 |
| 20260509050012 | 11 | 231 | 0.0 | 3.2 | 0.00 | 0.00 | 0.00 | 65 | 1013.8 |
| 20260509044513 | 11 | 246 | 0.0 | 3.2 | 0.00 | 0.00 | 0.00 | 65 | 1014.0 |
| 20260509043022 | 12 | 333 | 0.0 | 3.2 | 0.00 | 0.00 | 0.00 | 61 | 1013.9 |
| 20260509041510 | 12 | 38 | 0.0 | 3.2 | 0.00 | 0.00 | 0.00 | 58 | 1013.9 |
| 20260509040010 | 13 | 38 | 0.0 | 0.0 | 0.00 | 0.00 | 0.00 | 57 | 1013.7 |
| 20260509034513 | 14 | 38 | 0.0 | 1.6 | 0.00 | 0.00 | 0.00 | 52 | 1013.6 |
| 20260509033010 | 14 | 38 | 0.0 | 1.6 | 0.00 | 0.00 | 0.00 | 53 | 1013.6 |
| 20260509031513 | 15 | 38 | 0.0 | 0.0 | 0.00 | 0.00 | 0.00 | 53 | 1013.5 |
| 20260509030011 | 16 | 38 | 0.0 | 0.0 | 0.00 | 0.00 | 0.00 | 48 | 1013.3 |
| 20260509024508 | 16 | 38 | 0.0 | 1.6 | 0.00 | 0.00 | 0.00 | 47 | 1013.1 |
| 20260509023017 | 17 | 26 | 0.0 | 3.2 | 0.00 | 0.00 | 0.00 | 45 | 1012.8 |
| 20260509021510 | 17 | 46 | 0.0 | 0.0 | 0.00 | 0.00 | 0.00 | 44 | 1012.8 |
| 20260509020006 | 18 | 46 | 0.0 | 3.2 | 0.00 | 0.00 | 0.00 | 41 | 1012.8 |
| 20260509014506 | 20 | 22 | 0.0 | 0.0 | 0.00 | 0.00 | 0.00 | 38 | 1012.7 |
| 20260509013035 | 21 | 11 | 0.0 | 3.2 | 0.00 | 0.00 | 0.00 | 36 | 1012.9 |
| 20260509011520 | 21 | 24 | 0.0 | 4.8 | 0.00 | 0.00 | 0.00 | 34 | 1012.7 |
| 20260509010003 | 22 | 11 | 1.6 | 6.4 | 0.00 | 0.00 | 0.00 | 32 | 1012.6 |
| 20260509004517 | 22 | 10 | 6.4 | 16.1 | 0.00 | 0.00 | 0.00 | 31 | 1012.6 |
| 20260509003010 | 23 | 32 | 3.2 | 12.9 | 0.00 | 0.00 | 0.00 | 32 | 1012.5 |
| 20260509001519 | 23 | 14 | 8.0 | 14.5 | 0.00 | 0.00 | 0.00 | 31 | 1012.4 |
| 20260509000016 | 23 | 336 | 4.8 | 12.9 | 0.00 | 0.00 | 0.00 | 30 | 1012.4 |
| 20260508234505 | 23 | 28 | 11.3 | 19.3 | 0.00 | 0.00 | 0.00 | 29 | 1012.5 |
| 20260508233008 | 24 | 17 | 4.8 | 9.7 | 0.00 | 0.00 | 0.00 | 29 | 1012.4 |
| 20260508231518 | 24 | 24 | 11.3 | 20.9 | 0.00 | 0.00 | 0.00 | 29 | 1012.2 |
| 20260508230035 | 25 | 23 | 6.4 | 16.1 | 0.00 | 0.00 | 0.00 | 29 | 1012.2 |
| 20260508224522 | 25 | 22 | 4.8 | 16.1 | 0.00 | 0.00 | 0.00 | 30 | 1012.3 |
| 20260508223011 | 24 | 352 | 8.0 | 16.1 | 0.00 | 0.00 | 0.00 | 30 | 1012.3 |
| 20260508221514 | 24 | 18 | 8.0 | 16.1 | 0.00 | 0.00 | 0.00 | 30 | 1012.5 |
| 20260508220019 | 23 | 344 | 9.7 | 17.7 | 0.00 | 0.00 | 0.00 | 32 | 1012.6 |
| 20260508214526 | 23 | 347 | 9.7 | 17.7 | 0.00 | 0.00 | 0.00 | 33 | 1012.5 |
| 20260508213024 | 24 | 17 | 8.0 | 19.3 | 0.00 | 0.00 | 0.00 | 32 | 1012.7 |
| 20260508211516 | 24 | 22 | 11.3 | 22.5 | 0.00 | 0.00 | 0.00 | 32 | 1012.7 |
| 20260508210029 | 25 | 348 | 12.9 | 25.7 | 0.00 | 0.00 | 0.00 | 32 | 1012.8 |
| 20260508204522 | 25 | 315 | 12.9 | 24.1 | 0.00 | 0.00 | 0.00 | 32 | 1013.0 |
| 20260508203025 | 24 | 17 | 9.7 | 24.1 | 0.00 | 0.00 | 0.00 | 32 | 1013.0 |
| 20260508201510 | 24 | 352 | 12.9 | 24.1 | 0.00 | 0.00 | 0.00 | 33 | 1013.0 |
| 20260508200017 | 24 | 352 | 14.5 | 22.5 | 0.00 | 0.00 | 0.00 | 34 | 1013.1 |
| 20260508194521 | 24 | 325 | 14.5 | 27.4 | 0.00 | 0.00 | 0.00 | 34 | 1013.1 |
| 20260508193023 | 23 | 350 | 11.3 | 25.7 | 0.00 | 0.00 | 0.00 | 36 | 1013.3 |
| 20260508191527 | 23 | 342 | 11.3 | 25.7 | 0.00 | 0.00 | 0.00 | 36 | 1013.1 |
| 20260508190012 | 23 | 352 | 11.3 | 20.9 | 0.00 | 0.00 | 0.00 | 35 | 1013.2 |
| 20260508184535 | 23 | 17 | 14.5 | 32.2 | 0.00 | 0.00 | 0.00 | 35 | 1013.3 |
| 20260508183028 | 22 | 19 | 12.9 | 24.1 | 0.00 | 0.00 | 0.00 | 36 | 1013.4 |
| 20260508181542 | 22 | 352 | 12.9 | 25.7 | 0.00 | 0.00 | 0.00 | 37 | 1013.5 |
| 20260508180026 | 22 | 328 | 12.9 | 29.0 | 0.00 | 0.00 | 0.00 | 40 | 1013.4 |
| 20260508174506 | 22 | 306 | 16.1 | 24.1 | 0.00 | 0.00 | 0.00 | 40 | 1013.6 |
| 20260508173003 | 22 | 352 | 17.7 | 25.7 | 0.00 | 0.00 | 0.00 | 41 | 1013.7 |
| 20260508171505 | 21 | 360 | 14.5 | 29.0 | 0.00 | 0.00 | 0.00 | 42 | 1013.7 |
| 20260508170015 | 21 | 352 | 14.5 | 27.4 | 0.00 | 0.00 | 0.00 | 44 | 1013.8 |
| 20260508164516 | 21 | 342 | 11.3 | 27.4 | 0.00 | 0.00 | 0.00 | 44 | 1013.8 |
| 20260508163003 | 21 | 316 | 9.7 | 24.1 | 0.00 | 0.00 | 0.00 | 47 | 1013.9 |
| 20260508161505 | 20 | 329 | 14.5 | 25.7 | 0.00 | 0.00 | 0.00 | 48 | 1013.9 |
| 20260508160013 | 20 | 44 | 12.9 | 25.7 | 0.00 | 0.00 | 0.00 | 50 | 1013.9 |
| 20260508154514 | 19 | 9 | 16.1 | 25.7 | 0.00 | 0.00 | 0.00 | 52 | 1013.8 |
| 20260508153004 | 19 | 18 | 11.3 | 24.1 | 0.00 | 0.00 | 0.00 | 54 | 1013.8 |
| 20260508151510 | 18 | 346 | 11.3 | 24.1 | 0.00 | 0.00 | 0.00 | 53 | 1013.6 |
| 20260508150011 | 18 | 340 | 8.0 | 24.1 | 0.00 | 0.00 | 0.00 | 54 | 1013.7 |
| 20260508144529 | 18 | 310 | 11.3 | 24.1 | 0.00 | 0.00 | 0.00 | 55 | 1013.6 |
| 20260508143018 | 17 | 336 | 9.7 | 17.7 | 0.00 | 0.00 | 0.00 | 60 | 1013.6 |
| 20260508141504 | 16 | 360 | 9.7 | 17.7 | 0.00 | 0.00 | 0.00 | 61 | 1013.4 |
| 20260508140010 | 15 | 9 | 8.0 | 14.5 | 0.00 | 0.00 | 0.00 | 65 | 1013.3 |
| 20260508134514 | 13 | 326 | 3.2 | 6.4 | 0.00 | 0.00 | 0.00 | 68 | 1013.3 |
| 20260508133023 | 13 | 333 | 1.6 | 8.0 | 0.00 | 0.00 | 0.00 | 69 | 1013.2 |
| 20260508131521 | 12 | 336 | 4.8 | 12.9 | 0.00 | 0.00 | 0.00 | 77 | 1013.0 |
| 20260508130004 | 9 | 352 | 3.2 | 4.8 | 0.00 | 0.00 | 0.00 | 84 | 1012.4 |
| 20260508124507 | 8 | 285 | 0.0 | 0.0 | 0.00 | 0.00 | 0.00 | 83 | 1012.1 |
| 20260508123014 | 7 | 285 | 0.0 | 1.6 | 0.00 | 0.00 | 0.00 | 82 | 1011.7 |
| 20260508121520 | 7 | 285 | 0.0 | 0.0 | 0.00 | 0.00 | 0.00 | 80 | 1011.6 |
| 20260508120026 | 7 | 285 | 0.0 | 0.0 | 0.00 | 0.00 | 0.00 | 79 | 1011.5 |
| 20260508114510 | 8 | 285 | 0.0 | 3.2 | 0.00 | 0.00 | 0.00 | 77 | 1012.0 |
| 20260508113012 | 8 | 285 | 0.0 | 3.2 | 0.00 | 0.00 | 0.00 | 76 | 1011.6 |
| 20260508111519 | 9 | 285 | 0.0 | 0.0 | 0.00 | 0.00 | 0.00 | 73 | 1011.8 |
| 20260508110042 | 9 | 285 | 0.0 | 3.2 | 0.00 | 0.00 | 0.00 | 73 | 1011.6 |
| 20260508104524 | 8 | 285 | 0.0 | 3.2 | 0.00 | 0.00 | 0.00 | 76 | 1011.3 |
| 20260508103011 | 8 | 285 | 0.0 | 3.2 | 0.00 | 0.00 | 0.00 | 76 | 1011.8 |
| 20260508101518 | 8 | 285 | 0.0 | 3.2 | 0.00 | 0.00 | 0.00 | 75 | 1011.9 |
| 20260508100022 | 8 | 188 | 0.0 | 4.8 | 0.00 | 0.00 | 0.00 | 74 | 1011.8 |
| 20260508094523 | 8 | 243 | 0.0 | 0.0 | 0.00 | 0.00 | 0.00 | 74 | 1011.7 |
| 20260508093034 | 8 | 243 | 0.0 | 1.6 | 0.00 | 0.00 | 0.00 | 71 | 1011.5 |
| 20260508091514 | 9 | 336 | 0.0 | 9.7 | 0.00 | 0.00 | 0.00 | 70 | 1011.8 |
| 20260508090025 | 7 | 336 | 4.8 | 14.5 | 0.00 | 0.00 | 0.00 | 75 | 1012.1 |
| 20260508084504 | 7 | 246 | 0.0 | 3.2 | 0.00 | 0.00 | 0.00 | 73 | 1011.3 |
| 20260508083008 | 7 | 246 | 0.0 | 3.2 | 0.00 | 0.00 | 0.00 | 72 | 1011.1 |
| 20260508081510 | 7 | 246 | 0.0 | 4.8 | 0.00 | 0.03 | 0.00 | 73 | 1011.2 |
| 20260508080015 | 7 | 336 | 0.0 | 0.0 | 0.00 | 0.03 | 0.00 | 72 | 1011.2 |
| 20260508074512 | 7 | 336 | 0.0 | 0.0 | 0.00 | 0.03 | 0.00 | 70 | 1011.3 |
| 20260508073004 | 8 | 336 | 0.0 | 3.2 | 0.00 | 0.03 | 0.00 | 67 | 1011.5 |
| 20260508071510 | 10 | 248 | 0.0 | 3.2 | 0.00 | 0.03 | 0.00 | 63 | 1011.6 |
| 20260508070014 | 10 | 221 | 0.0 | 8.0 | 0.00 | 0.03 | 0.00 | 61 | 1011.6 |
| 20260508064517 | 11 | 209 | 3.2 | 9.7 | 0.00 | 0.03 | 0.00 | 59 | 1011.6 |
| 20260508063005 | 11 | 232 | 3.2 | 8.0 | 0.00 | 0.03 | 0.00 | 57 | 1011.7 |
| 20260508061506 | 11 | 188 | 3.2 | 8.0 | 0.00 | 0.03 | 0.00 | 56 | 1011.7 |
| 20260508060010 | 12 | 194 | 4.8 | 8.0 | 0.00 | 0.03 | 0.00 | 55 | 1011.7 |
| 20260508054517 | 12 | 203 | 4.8 | 8.0 | 0.00 | 0.03 | 0.00 | 54 | 1011.8 |